[[{"header":{"parameterUnit":"m.s-1","parameterCategory":1,"la1":30.2992,"la2":30.254,"lo1":-89.0895,"lo2":-89.0443,"dy":0.0025,"dx":0.0025,"nx":19,"ny":19,"refTime":"2026-05-01T09:00:00:Z","depth":0,"parameterNumber":2,"parameterNumberName":"U-component_of_WINDS"},"data":[0,0,0,-3.8157,-3.8165,-3.8575,-3.8577,-3.9084,-3.9089,0,0,0,0,0,0,0,0,0,0,0,-3.8025,-3.8027,-3.8156,-3.8166,-3.8575,-3.8577,-3.9084,-3.9089,0,0,0,0,0,0,0,0,0,0,0,-3.8023,-3.8027,-3.8031,-3.8168,-3.8575,-3.8577,-3.9083,-3.878,0,0,0,0,0,0,0,0,0,0,-3.8385,-3.8251,-3.8026,-3.8031,-3.817,-3.8574,-3.8577,-3.8766,-3.8799,-3.8892,0,-3.8969,0,-3.9037,-3.9122,-3.9123,0,0,0,-3.8175,-3.8224,-3.8344,-3.8031,-3.8174,-3.8574,-3.8393,-3.8784,-3.8822,-3.8935,-3.8977,-3.8996,-3.9045,-3.9125,-3.9127,-3.9629,-3.9631,0,0,-3.8153,-3.8093,-3.8318,-3.8368,-3.8302,-3.838,-3.8406,-3.8807,-3.8849,-3.8979,-3.9009,-3.9054,-3.9128,-3.9132,-3.9628,-3.963,0,0,0,-3.8082,-3.8076,-3.8187,-3.8346,-3.8421,-3.8392,-3.8421,-3.8832,-3.8873,-3.9014,-3.906,-3.9131,-3.9137,-3.9626,-3.9628,-3.9666,0,0,0,-3.8069,-3.8035,-3.8177,-3.8144,-3.8413,-3.8631,-3.8436,-3.8845,-3.8892,-3.9057,-3.9131,-3.9142,-3.9623,-3.9627,-3.9661,-3.9695,0,0,0,-3.8002,-3.8027,-3.8082,-3.814,-3.8314,-3.8626,-3.8691,-3.8856,-3.892,-3.9124,-3.9143,-3.9622,-3.9626,-3.9656,-3.9687,-3.9811,0,0,0,-3.7914,-3.811,-3.8082,-3.8319,-3.831,-3.8645,-3.8689,-3.8942,-3.9121,-3.9133,-3.9624,-3.9628,-3.9654,-3.9682,-3.9805,-3.9906,-3.9942,0,0,-3.8128,-3.8133,-3.8278,-3.8265,-3.8589,-3.8587,-3.8919,-3.914,-3.9215,-3.9487,-3.9501,-3.9662,-3.9687,-3.981,-4.0158,-4.0185,0,0,0,-3.8326,-3.8429,-3.8528,-3.8695,-3.8868,-3.902,-3.9197,-3.928,-3.9513,-3.9342,-3.9741,-3.9758,-3.9832,-3.9884,-3.9908,-3.9977,-3.9648,-3.9648,-3.9647,-3.8545,-3.8629,-3.8874,-3.9008,-3.9169,-3.935,-3.9489,-3.9632,-3.967,-3.9762,-3.9845,-4.0045,-4.0103,-4.0121,-4.0192,-3.9902,-3.9903,-3.9903,-3.9903,-3.8869,-3.903,-3.9075,-3.9329,-3.9417,-3.9632,-3.9813,-3.9833,-4.0048,-3.999,-4.006,-3.9992,-4.0149,-4.0216,-3.9907,-3.9906,-3.9905,-3.9905,-3.9905,-3.9025,-3.9116,-3.9212,-3.9463,-3.9647,-3.9775,-3.9979,-4.0052,-4.0122,-4.0191,-4.0288,-4.0287,-4.0298,-4.0231,-4.0232,-4.0233,-4.0233,-4.0234,-4.0234,-3.9149,-3.9255,-3.9418,-3.9617,-3.9734,-3.9898,-4.0081,-4.0199,-4.0349,-4.0386,-4.0388,-4.0418,-4.0147,-4.0079,-4.0245,-4.0243,-4.0242,-4.0241,-4.024,-3.9452,-3.9395,-3.9645,-3.9763,-4.0004,-4.0183,-4.0272,-4.0506,-4.0615,-4.0713,-4.0728,-4.0515,-4.0527,-4.0508,-4.0453,-4.0707,-4.0707,-4.0707,-4.0707,-3.9585,-3.9597,-3.987,-4.0053,-4.0241,-4.0347,-4.063,-4.0773,-4.0913,-4.0986,-4.0959,-4.089,-4.0868,-4.0894,-4.0867,-4.0817,-4.1158,-4.1158,-4.1159,-3.9778,-3.9811,-4.0037,-4.0171,-4.0365,-4.053,-4.0799,-4.1009,-4.1156,-4.1179,-4.1045,-4.1026,-4.0916,-4.0876,-4.0898,-4.0855,-4.0764,0,0]},{"header":{"parameterUnit":"m.s-1","parameterCategory":1,"la1":30.2992,"la2":30.254,"lo1":-89.0895,"lo2":-89.0443,"dy":0.0025,"dx":0.0025,"nx":19,"ny":19,"refTime":"2026-05-01T09:00:00:Z","depth":0,"parameterNumber":3,"parameterNumberName":"V-component_of_WINDS"},"data":[0,0,0,-9.8216,-9.8224,-9.8584,-9.8586,-9.904,-9.9044,0,0,0,0,0,0,0,0,0,0,0,-9.811,-9.8113,-9.8215,-9.8224,-9.8584,-9.8586,-9.9039,-9.9044,0,0,0,0,0,0,0,0,0,0,0,-9.8108,-9.8112,-9.8116,-9.8226,-9.8584,-9.8586,-9.9038,-9.8767,0,0,0,0,0,0,0,0,0,0,-9.8418,-9.8322,-9.8111,-9.8116,-9.8228,-9.8584,-9.8586,-9.8755,-9.8784,-9.8875,0,-9.8961,0,-9.901,-9.9074,-9.9076,0,0,0,-9.8222,-9.8298,-9.8395,-9.8117,-9.8231,-9.8583,-9.8421,-9.8771,-9.8805,-9.8915,-9.8967,-9.8984,-9.9018,-9.9077,-9.908,-9.9622,-9.9625,0,0,-9.8202,-9.8174,-9.8371,-9.8417,-9.8366,-9.841,-9.8433,-9.8792,-9.8845,-9.8969,-9.8995,-9.9025,-9.908,-9.9084,-9.962,-9.9623,0,0,0,-9.8147,-9.816,-9.8248,-9.8398,-9.8464,-9.842,-9.8446,-9.8829,-9.886,-9.9,-9.903,-9.9083,-9.9089,-9.9617,-9.9621,-9.9726,0,0,0,-9.8134,-9.8128,-9.824,-9.8226,-9.8457,-9.8652,-9.8476,-9.8835,-9.8877,-9.9028,-9.9083,-9.9093,-9.9614,-9.9619,-9.9717,-9.978,0,0,0,-9.8086,-9.8122,-9.8175,-9.8224,-9.8378,-9.8647,-9.8699,-9.8845,-9.8896,-9.9076,-9.9094,-9.9613,-9.9618,-9.9709,-9.9767,-9.9916,0,0,0,-9.8024,-9.826,-9.8176,-9.8451,-9.8375,-9.871,-9.8697,-9.8947,-9.9114,-9.9085,-9.9615,-9.9621,-9.9707,-9.9759,-9.9907,-10.0037,-10.0089,0,0,-9.8306,-9.8293,-9.8457,-9.8392,-9.8736,-9.8657,-9.9015,-9.9193,-9.9233,-9.9489,-9.9503,-9.972,-9.9766,-9.9914,-10.0386,-10.0427,0,0,0,-9.8536,-9.8654,-9.8751,-9.8912,-9.9056,-9.9184,-9.931,-9.9376,-9.9596,-9.9361,-9.9815,-9.9843,-9.9931,-9.9994,-10.0029,-10.0106,-9.9649,-9.9648,-9.9648,-9.8893,-9.8936,-9.921,-9.9297,-9.9452,-9.9581,-9.9709,-9.9819,-9.9813,-9.992,-9.9997,-10.0278,-10.0351,-10.0378,-10.0458,-10.0068,-10.0068,-10.0068,-10.0069,-9.931,-9.9483,-9.9474,-9.9737,-9.9778,-9.9997,-10.0129,-10.0118,-10.0326,-10.0223,-10.0303,-10.0188,-10.0421,-10.0493,-10.0077,-10.0076,-10.0075,-10.0074,-10.0073,-9.9549,-9.964,-9.9719,-9.9956,-10.0132,-10.0209,-10.0411,-10.044,-10.0469,-10.0548,-10.0632,-10.063,-10.0633,-10.0586,-10.0587,-10.0588,-10.0589,-10.0589,-10.059,-9.9767,-9.9852,-10.0021,-10.0195,-10.0302,-10.0447,-10.0578,-10.0683,-10.0806,-10.0811,-10.0812,-10.0795,-10.0437,-10.0346,-10.0605,-10.0603,-10.0601,-10.0599,-10.0598,-10.0175,-10.0088,-10.0349,-10.0457,-10.0663,-10.0836,-10.0872,-10.1083,-10.1173,-10.1271,-10.1238,-10.0968,-10.0955,-10.0928,-10.0853,-10.1228,-10.1228,-10.1228,-10.1228,-10.0378,-10.0375,-10.0649,-10.082,-10.099,-10.1049,-10.1338,-10.1442,-10.1534,-10.1592,-10.1541,-10.1445,-10.1415,-10.142,-10.1382,-10.1313,-10.1797,-10.1797,-10.1798,-10.0631,-10.0647,-10.089,-10.0984,-10.1148,-10.1286,-10.1559,-10.1751,-10.1837,-10.1821,-10.1638,-10.1614,-10.1458,-10.1405,-10.1386,-10.1326,-10.12,0,0]}]]